Torna al catalogo

DMSP 5D-2 F13 DEB

AttivoSSO
NORAD 40473·DEBRIS·🇺🇸 United States

Lanciato Mar 24, 1995 da Vandenberg Space Force Base

Loading…

Prossimi Passaggi (prossime 24 ore)

TLE

AggiornatoSource: Space-Track

Epoca: Sep 14, 2026, 09:37 UTC

1 40473U 95015BR  26257.40128677  .00001537  00000-0  10017-2 0  9992
2 40473  98.7036  95.8737 0122090 124.8763 236.3952 14.00183886585048

Traccia DMSP 5D-2 F13 DEB in tempo reale con AllMySat

Download on the App Store